FW6569 Weather Reports


time (UTC)temp
F
wind
direction
speed
knots
gust
knots
rain 1hr
in
rain 24hr
in
rain mn
in
humidity
%
barometer
mb
20260510024527 58 0.0 0.0 0.00 0.22 0.19 81 1011.3
20260510023548 58 0.0 0.0 0.00 0.22 0.19 79 1011.2
20260510022527 59 0.0 0.0 0.00 0.23 0.19 78 1011.0
20260510021527 60 0.0 0.0 0.00 0.24 0.19 78 1010.9
20260510020528 60 0.0 0.0 0.00 0.24 0.19 74 1010.8
20260510015528 60 0.0 0.0 0.00 0.24 0.19 74 1010.7
20260510014527 61 0.0 0.0 0.00 0.24 0.19 71 1010.6
20260510013528 62 0.0 0.0 0.00 0.24 0.19 71 1010.4
20260510012527 63 221 0.0 1.7 0.00 0.24 0.19 69 1010.2
20260510011528 63 0.0 0.0 0.00 0.24 0.19 66 1010.0
20260510010528 64 0.0 0.0 0.00 0.24 0.19 65 1009.9
20260510005527 66 0.0 0.0 0.00 0.24 0.19 62 1009.8
20260510004528 67 227 0.0 1.7 0.00 0.24 0.19 61 1009.7
20260510003528 68 234 0.9 2.6 0.00 0.24 0.19 57 1009.5
20260510002528 69 227 1.7 5.2 0.00 0.24 0.19 55 1009.3
20260510001548 70 224 2.6 5.2 0.00 0.24 0.19 53 1009.1
20260510000528 71 249 3.5 6.1 0.00 0.24 0.19 52 1008.9
20260509235528 72 224 4.3 7.0 0.00 0.24 0.19 50 1008.9
20260509234528 73 242 5.2 8.7 0.00 0.24 0.19 48 1008.8
20260509233528 73 252 4.3 8.7 0.00 0.24 0.19 47 1008.6
20260509232528 75 238 4.3 11.3 0.00 0.24 0.19 47 1008.5
20260509231528 75 220 4.3 7.8 0.00 0.24 0.19 48 1008.4
20260509230528 75 236 4.3 8.7 0.00 0.24 0.19 47 1008.3
20260509225608 75 229 6.1 8.7 0.00 0.24 0.19 49 1008.3
20260509224528 75 243 7.0 11.3 0.00 0.24 0.19 48 1008.3
20260509223528 76 213 6.1 12.2 0.00 0.24 0.19 47 1008.3
20260509222528 76 221 6.1 12.2 0.00 0.24 0.19 46 1008.3
20260509221528 76 275 6.1 9.6 0.00 0.24 0.19 45 1008.4
20260509220528 76 228 7.0 10.4 0.00 0.24 0.19 45 1008.4
20260509215528 76 217 8.7 13.9 0.00 0.24 0.19 46 1008.5
20260509214528 76 219 7.8 13.0 0.00 0.24 0.19 45 1008.3
20260509213528 76 223 7.8 11.3 0.00 0.24 0.19 47 1008.4
20260509212529 75 241 7.0 9.6 0.00 0.24 0.19 52 1008.5
20260509211528 75 211 8.7 13.9 0.00 0.24 0.19 51 1008.5
20260509210528 75 204 9.6 14.8 0.00 0.24 0.19 52 1008.5
20260509205528 75 204 9.6 14.8 0.00 0.24 0.19 52 1008.5
20260509204529 75 208 8.7 12.2 0.00 0.24 0.19 52 1008.5
20260509203529 75 209 9.6 13.0 0.00 0.24 0.19 52 1008.7
20260509202608 75 221 7.0 11.3 0.00 0.24 0.19 55 1008.6
20260509201528 75 213 7.0 11.3 0.00 0.24 0.19 54 1008.7
20260509200529 74 210 7.8 9.6 0.00 0.24 0.19 54 1008.9
20260509195528 74 206 8.7 13.0 0.00 0.24 0.19 56 1009.1
20260509194529 73 218 9.6 14.8 0.00 0.24 0.19 56 1009.1
20260509193528 73 217 7.8 12.2 0.00 0.24 0.19 58 1009.1
20260509192528 73 208 7.8 12.2 0.00 0.24 0.19 58 1009.1
20260509191528 73 197 7.8 12.2 0.00 0.24 0.19 60 1009.2
20260509190528 72 208 9.6 12.2 0.00 0.24 0.19 60 1009.3
20260509185528 72 219 7.8 13.9 0.00 0.24 0.19 61 1009.4
20260509184529 72 198 8.7 11.3 0.00 0.24 0.19 61 1009.5
20260509183528 71 226 6.1 8.7 0.00 0.24 0.19 62 1009.4
20260509182519 71 218 7.0 12.2 0.00 0.24 0.19 61 1009.5
20260509181518 71 213 7.8 10.4 0.00 0.24 0.19 62 1009.5
20260509180518 71 235 5.2 8.7 0.00 0.24 0.19 63 1009.6
20260509175519 71 214 6.1 9.6 0.00 0.24 0.19 63 1009.7
20260509174518 69 212 7.8 12.2 0.00 0.24 0.19 65 1009.7
20260509173519 70 234 6.1 8.7 0.00 0.24 0.19 65 1009.9
20260509172519 70 236 4.3 8.7 0.00 0.24 0.19 64 1009.8
20260509171519 70 220 6.1 7.8 0.00 0.24 0.19 66 1009.8
20260509170519 68 217 6.1 10.4 0.00 0.24 0.19 67 1009.8
20260509165519 67 206 7.0 11.3 0.00 0.24 0.19 69 1009.9
20260509164519 67 211 6.1 9.6 0.00 0.24 0.19 68 1009.8
20260509163519 67 226 7.0 11.3 0.00 0.24 0.19 68 1009.8
20260509162539 67 219 6.1 12.2 0.00 0.24 0.19 70 1009.9
20260509161519 65 225 6.1 10.4 0.00 0.24 0.19 73 1009.9
20260509160519 64 209 7.0 9.6 0.00 0.24 0.19 75 1010.0
20260509155518 65 217 7.8 12.2 0.00 0.24 0.19 74 1009.9
20260509154519 65 200 7.8 12.2 0.00 0.24 0.19 73 1009.7
20260509153519 65 241 6.1 10.4 0.00 0.24 0.19 74 1009.6
20260509152519 64 225 7.0 9.6 0.00 0.24 0.19 75 1009.7
20260509151519 64 244 4.3 7.8 0.00 0.24 0.19 75 1009.7
20260509150519 64 214 6.1 8.7 0.00 0.24 0.19 78 1009.6
20260509145519 64 191 7.0 9.6 0.00 0.24 0.19 78 1009.5
20260509144519 63 206 7.8 11.3 0.00 0.24 0.19 78 1009.5
20260509143519 64 207 7.0 8.7 0.00 0.24 0.19 79 1009.5
20260509142519 63 189 6.1 7.8 0.00 0.24 0.19 79 1009.4
20260509141519 63 204 5.2 7.8 0.00 0.24 0.19 81 1009.3
20260509140519 62 175 6.1 8.7 0.00 0.24 0.19 82 1009.3
20260509135519 62 197 5.2 7.8 0.00 0.24 0.19 84 1009.4
20260509134540 61 215 5.2 7.8 0.00 0.24 0.19 86 1009.3
20260509133519 61 215 6.1 7.8 0.00 0.24 0.19 85 1009.2
20260509132519 61 205 4.3 6.1 0.00 0.24 0.19 87 1009.2
20260509131520 60 194 5.2 7.8 0.00 0.24 0.19 89 1009.3
20260509130519 59 203 5.2 7.8 0.00 0.24 0.19 89 1009.3
20260509125520 58 188 3.5 4.3 0.00 0.24 0.19 92 1009.2
20260509124519 57 194 3.5 5.2 0.00 0.24 0.19 94 1009.2
20260509123539 57 207 2.6 4.3 0.00 0.24 0.19 97 1009.1
20260509122519 56 207 1.7 4.3 0.00 0.24 0.19 97 1009.0
20260509121519 55 175 2.6 3.5 0.01 0.24 0.19 98 1008.9
20260509120520 55 201 1.7 2.6 0.01 0.24 0.19 99 1008.8
20260509115520 54 192 2.6 3.5 0.01 0.24 0.19 99 1008.9
20260509114519 54 214 1.7 3.5 0.01 0.24 0.19 99 1008.9
20260509113519 54 186 1.7 3.5 0.01 0.24 0.19 99 1008.8
20260509112520 54 185 1.7 3.5 0.01 0.24 0.19 99 1008.6
20260509111520 54 196 3.5 4.3 0.00 0.23 0.18 99 1008.6
20260509110520 54 175 0.9 1.7 0.00 0.23 0.18 99 1008.5
20260509105519 54 110 0.0 1.7 0.00 0.23 0.18 99 1008.4
20260509104520 54 62 0.0 1.7 0.00 0.23 0.18 99 1008.3
20260509103520 54 155 1.7 3.5 0.00 0.23 0.18 99 1008.3
20260509102520 54 161 0.9 1.7 0.01 0.23 0.18 99 1008.4
20260509101520 54 170 0.9 1.7 0.01 0.23 0.18 99 1008.6
20260509100540 54 187 0.9 2.6 0.03 0.23 0.18 99 1008.9
20260509095519 54 181 1.7 2.6 0.04 0.23 0.18 99 1008.8
20260509094520 54 0.0 0.0 0.04 0.23 0.18 98 1008.9
20260509093520 54 0.0 0.0 0.04 0.23 0.18 98 1009.2
20260509092520 54 203 0.9 1.7 0.04 0.22 0.17 98 1009.3
20260509091701 54 0.0 0.9 0.05 0.22 0.17 98 1009.2
20260509090520 54 203 1.7 2.6 0.05 0.20 0.15 98 1009.4
20260509085520 54 0.0 0.0 0.04 0.19 0.14 98 1009.3
20260509084520 54 89 0.9 2.6 0.05 0.19 0.14 98 1009.4
20260509083540 54 0.0 0.0 0.06 0.19 0.14 98 1009.5
20260509082600 54 152 0.0 1.7 0.06 0.18 0.13 98 1009.7
20260509081520 54 0.0 0.0 0.06 0.17 0.12 98 1009.7
20260509080520 54 0.0 0.0 0.05 0.15 0.10 98 1009.8
20260509075520 54 0.0 0.0 0.06 0.15 0.10 98 1009.8
20260509074540 54 0.0 0.0 0.05 0.14 0.09 98 1009.7
20260509073520 54 133 0.9 1.7 0.04 0.13 0.08 98 1010.0
20260509072521 54 0.0 0.9 0.03 0.12 0.07 98 1010.1
20260509071520 54 0.0 0.0 0.02 0.11 0.06 97 1010.2
20260509070520 54 0.0 0.0 0.02 0.10 0.05 97 1010.1
20260509065520 54 127 0.9 1.7 0.02 0.09 0.04 97 1010.0
20260509064520 54 0.0 0.0 0.02 0.09 0.04 97 1010.2
20260509063540 54 0.0 0.0 0.03 0.09 0.04 97 1010.3
20260509062600 54 0.0 0.0 0.03 0.09 0.04 97 1010.5
20260509061520 54 0.0 0.0 0.03 0.09 0.04 97 1010.5
20260509060520 54 0.0 0.0 0.02 0.08 0.03 97 1010.8
20260509055520 54 0.0 0.0 0.01 0.07 0.02 97 1010.9
20260509054520 54 0.0 0.0 0.01 0.07 0.02 97 1010.9
20260509053601 54 0.0 0.0 0.00 0.06 0.01 97 1010.8
20260509052520 54 25 0.0 0.9 0.00 0.06 0.01 97 1010.7
20260509051520 54 343 0.9 2.6 0.00 0.06 0.01 97 1010.6
20260509050540 54 3 0.0 1.7 0.01 0.06 0.01 96 1010.5
20260509045520 54 3 0.0 1.7 0.01 0.06 0.01 96 1010.4
20260509044520 55 357 0.9 2.6 0.01 0.06 0.01 96 1010.3
20260509043540 55 353 2.6 4.3 0.01 0.06 0.01 96 1010.3
20260509042520 55 338 0.0 2.6 0.02 0.06 0.01 96 1010.5
20260509041521 55 357 1.7 2.6 0.02 0.06 0.01 96 1010.6
20260509040520 55 357 0.0 1.7 0.02 0.05 0.00 96 1010.7
20260509035520 55 358 0.9 2.6 0.02 0.05 0.05 95 1010.7
20260509034521 55 6 0.9 2.6 0.03 0.05 0.05 95 1010.9
20260509033540 55 354 0.9 1.7 0.03 0.05 0.05 95 1011.1
20260509032541 55 12 0.9 1.7 0.03 0.04 0.04 94 1011.2
20260509031520 55 0.0 0.0 0.04 0.04 0.04 93 1011.3
20260509030520 55 0.0 0.0 0.03 0.03 0.03 93 1011.3
20260509025521 55 0.0 0.0 0.03 0.03 0.03 93 1011.3